Buoy 43528

sailwx.info

Track history (hours):
 
Tides and Currents Weather Stations Pressure Air Temp Water Temp Dewpoint Dewpoint Depression Visibility Wind Speed Wind Dir Waves Ship Positions

Drifting buoy 43528

Last reported at 2014-Sep-02 19:00 UTC. Time now 2014-Sep-02 21:31 UTC.
Position N 13°45' W 121°25'.

Water temperature 28.8 ° C

Date/timePositionNaut miles runAvg speedWind from/ knotsBaromVisibWave heightAir tempDewpointWater temp
2014-Sep-02 19:00N 13°45' W 121°25'0 0.2 28.8
2014-Sep-02 17:00N 13°45' W 121°25'1 1.1 28.2
2014-Sep-02 16:00N 13°45' W 121°24'1 0.4 28.1
2014-Sep-02 14:00N 13°45' W 121°23'0 0.5 28.1
2014-Sep-02 13:00N 13°45' W 121°23'1 0.7 28.1
2014-Sep-02 12:00N 13°46' W 121°23'0 0.3 28.1
2014-Sep-02 11:00N 13°46' W 121°22'4 1.9 28.1
2014-Sep-02 09:00N 13°49' W 121°21'0 0.0 28.1
2014-Sep-02 06:00N 13°49' W 121°21'1 0.3 28.2
2014-Sep-02 04:00N 13°50' W 121°21'1 0.6 28.2
2014-Sep-02 02:00N 13°50' W 121°22'1 1.2 28.3
2014-Sep-02 01:00N 13°51' W 121°23'0 0.0 28.5
2014-Sep-02 00:00N 13°51' W 121°23'0 0.2 28.5
2014-Sep-01 23:00N 13°51' W 121°24'1 0.4 28.6
2014-Sep-01 21:00N 13°51' W 121°24'1 0.2 28.5
2014-Sep-01 18:00N 13°51' W 121°25'0 0.2 28.1
2014-Sep-01 16:00N 13°52' W 121°25'0 0.1 28.0
2014-Sep-01 12:00N 13°52' W 121°25'0 0.2 28.0
2014-Sep-01 11:00N 13°52' W 121°25'0 0.2 28.0
2014-Sep-01 09:00N 13°52' W 121°24'0 0.0 28.0
2014-Sep-01 06:00N 13°52' W 121°24'0 0.4 28.0
2014-Sep-01 05:00N 13°52' W 121°24'0 0.4 28.0
2014-Sep-01 04:00N 13°51' W 121°24'1 0.5 28.0
2014-Sep-01 03:00N 13°52' W 121°24'1 0.7 28.0
2014-Sep-01 01:00N 13°53' W 121°22'1 0.5 28.1
2014-Aug-31 23:00N 13°53' W 121°23'1 1.0 28.3
2014-Aug-31 22:00N 13°54' W 121°23'0 0.0 28.2
2014-Aug-31 21:00N 13°54' W 121°23'1 0.4 28.2
2014-Aug-31 18:00N 13°55' W 121°22'1 0.9 28.0
2014-Aug-31 17:00N 13°55' W 121°23'0 0.1 28.0
2014-Aug-31 16:00N 13°55' W 121°23'0 0.2 28.0
2014-Aug-31 14:00N 13°56' W 121°23'0 0.2 27.9
2014-Aug-31 12:00N 13°55' W 121°23'1 0.4 27.9
2014-Aug-31 10:00N 13°55' W 121°23'3 2.6 28.0
2014-Aug-31 09:00N 13°54' W 121°21'1 0.2 28.0
2014-Aug-31 06:00N 13°54' W 121°20'2 0.7 28.2
2014-Aug-31 03:00N 13°54' W 121°18'3 1.4 28.1
2014-Aug-31 01:00N 13°55' W 121°16'0 0.5 28.2
2014-Aug-31 00:00N 13°55' W 121°15'2 1.6 28.2
2014-Aug-30 23:00N 13°56' W 121°14'2 0.5 28.2
2014-Aug-30 18:00N 13°58' W 121°12'3 3.1 28.0
2014-Aug-30 17:00N 13°59' W 121°09'0 0.0 28.0
2014-Aug-30 16:00N 13°59' W 121°09'1 0.7 28.0
2014-Aug-30 14:00N 13°60' W 121°08'0 0.0 28.0
2014-Aug-30 13:00N 13°60' W 121°08'2 2.0 27.9
2014-Aug-30 12:00N 14°01' W 121°06'2 0.8 28.0
2014-Aug-30 10:00N 14°02' W 121°05'0 0.1 28.0
2014-Aug-30 05:00N 14°02' W 121°04'1 1.3 28.1
2014-Aug-30 04:00N 14°02' W 121°03'1 1.3 28.2
2014-Aug-30 03:00N 14°01' W 121°02'2 1.5 28.2
2014-Aug-30 02:00N 14°01' W 121°00'1 0.3 28.3
2014-Aug-30 00:00N 14°01' W 120°60'2 0.7 28.4
2014-Aug-29 21:00N 14°01' W 120°57'4 1.4
2014-Aug-29 18:00N 14°00' W 120°53'0 0.3 28.1
2014-Aug-29 17:00N 14°01' W 120°53'7 1.5 28.0
2014-Aug-29 12:00N 13°60' W 120°45'4 1.8 28.0
2014-Aug-29 10:00N 14°01' W 120°41'4 3.6 28.0
2014-Aug-29 09:00N 13°60' W 120°45'4 1.2 28.0
2014-Aug-29 06:00N 14°01' W 120°41'2 0.5 28.0
2014-Aug-29 03:00N 14°02' W 120°41'0 0.0 28.2
2014-Aug-29 02:00N 14°02' W 120°41'1 0.6 28.5
2014-Aug-29 00:00N 14°03' W 120°42'1 0.3 28.8
2014-Aug-28 21:00N 14°02' W 120°42'0 0.1 28.2
2014-Aug-28 18:00N 14°02' W 120°42'2 1.1 27.8
2014-Aug-28 16:00N 14°00' W 120°42'0 0.0 27.6
2014-Aug-28 14:00N 14°00' W 120°42'1 0.5 27.4
2014-Aug-28 13:00N 13°60' W 120°42'1 0.3 27.5
2014-Aug-28 11:00N 14°00' W 120°41'2 1.8 27.8
2014-Aug-28 10:00N 13°59' W 120°41'2 0.4 27.9
2014-Aug-28 06:00N 13°57' W 120°40'1 0.6 27.9
2014-Aug-28 05:00N 13°57' W 120°40'3 0.6 27.9
2014-Aug-28 00:00N 13°54' W 120°39'1 1.5 27.9
2014-Aug-27 23:00N 13°53' W 120°39'1 0.9 27.9
2014-Aug-27 22:00N 13°52' W 120°39'1 0.9 27.9
2014-Aug-27 21:00N 13°53' W 120°39'1 0.4 27.9
2014-Aug-27 18:00N 13°52' W 120°38'0 0.3 27.9
2014-Aug-27 17:00N 13°52' W 120°39'1 0.2 27.9
2014-Aug-27 14:00N 13°52' W 120°38'0 0.2 27.9
2014-Aug-27 13:00N 13°52' W 120°38'0 0.1 27.9
2014-Aug-27 10:00N 13°52' W 120°38'1 1.0 27.9
2014-Aug-27 09:00N 13°52' W 120°39'0 0.0 27.9
2014-Aug-27 05:00N 13°52' W 120°39'0 0.1 27.9
2014-Aug-27 04:00N 13°52' W 120°39'1 1.2 28.0
2014-Aug-27 03:00N 13°52' W 120°40'1 0.3 28.0
2014-Aug-27 00:00N 13°51' W 120°41'1 0.5 28.1
2014-Aug-26 22:00N 13°51' W 120°42'0 0.3 28.1
2014-Aug-26 21:00N 13°51' W 120°42'3 2.5 28.1
2014-Aug-26 20:00N 13°49' W 120°44'1 1.0 28.0
2014-Aug-26 19:00N 13°49' W 120°43'0 0.0 28.0
2014-Aug-26 18:00N 13°49' W 120°43'2 1.0 28.0
2014-Aug-26 16:00N 13°48' W 120°45'0 0.0 28.0
2014-Aug-26 15:00N 13°48' W 120°45'0 0.3 28.0
2014-Aug-26 14:00N 13°48' W 120°45'0 0.3 28.0
2014-Aug-26 13:00N 13°48' W 120°45'0 0.0 28.0
2014-Aug-26 12:00N 13°48' W 120°45'0 0.2 28.0
2014-Aug-26 11:00N 13°48' W 120°45'0 0.3 28.0
2014-Aug-26 10:00N 13°48' W 120°45'0 0.0 28.0
2014-Aug-26 09:00N 13°48' W 120°45'0 0.0 28.0
2014-Aug-26 08:00N 13°48' W 120°45'2 0.3 28.0
2014-Aug-26 01:00N 13°51' W 120°45'1 0.3 28.1
2014-Aug-25 23:00N 13°51' W 120°46'0 0.4 28.2
2014-Aug-25 22:00N 13°52' W 120°46'1 0.3 28.2
2014-Aug-25 20:00N 13°52' W 120°46'1 0.7 28.1
2014-Aug-25 18:00N 13°54' W 120°45'1 1.4 28.1
2014-Aug-25 17:00N 13°55' W 120°46'0 0.0 28.0
2014-Aug-25 16:00N 13°55' W 120°46'0 0.0 28.0
2014-Aug-25 14:00N 13°55' W 120°46'1 0.6 28.0
2014-Aug-25 13:00N 13°55' W 120°46'1 0.3 28.0
2014-Aug-25 09:00N 13°56' W 120°46'0 0.0 28.0
2014-Aug-25 06:00N 13°56' W 120°46'1 0.6 28.1
2014-Aug-25 04:00N 13°57' W 120°45'2 0.5 28.1
2014-Aug-24 23:00N 13°59' W 120°44'0 0.4 28.2
2014-Aug-24 22:00N 13°59' W 120°43'1 0.6 28.2
2014-Aug-24 20:00N 13°60' W 120°42'2 2.0 28.1
2014-Aug-24 19:00N 14°01' W 120°41'1 0.5 28.1
2014-Aug-24 18:00N 14°01' W 120°41'1 0.8 28.0
2014-Aug-24 17:00N 14°02' W 120°41'3 2.6 28.0
2014-Aug-24 16:00N 14°02' W 120°39'2 0.6 28.0
2014-Aug-24 13:00N 14°03' W 120°37'2 1.5 27.9
2014-Aug-24 12:00N 14°04' W 120°36'1 0.7 28.0
2014-Aug-24 11:00N 14°04' W 120°37'5 1.0 28.0
2014-Aug-24 06:00N 14°07' W 120°33'2 0.9 28.0
2014-Aug-24 04:00N 14°08' W 120°31'3 3.0 28.1
2014-Aug-24 03:00N 14°11' W 120°30'3 0.9 28.1
2014-Aug-24 00:00N 14°13' W 120°28'1 0.9 28.3
2014-Aug-23 23:00N 14°14' W 120°28'1 0.6 28.3
2014-Aug-23 21:00N 14°15' W 120°27'   28.2
Track history (hours):
 
Tides and Currents Weather Stations Pressure Air Temp Water Temp Dewpoint Dewpoint Depression Visibility Wind Speed Wind Dir Waves Ship Positions

Drifting buoy 43528

Last reported at 2014-Sep-02 19:00 UTC. Time now 2014-Sep-02 21:31 UTC.
Position N 13°45' W 121°25'.

Water temperature 28.8 ° C

Date/timePositionNaut miles runAvg speedWind from/ knotsBaromVisibWave heightAir tempDewpointWater temp
2014-Sep-02 19:00N 13°45' W 121°25'0 0.2 28.8
2014-Sep-02 17:00N 13°45' W 121°25'1 1.1 28.2
2014-Sep-02 16:00N 13°45' W 121°24'1 0.4 28.1
2014-Sep-02 14:00N 13°45' W 121°23'0 0.5 28.1
2014-Sep-02 13:00N 13°45' W 121°23'1 0.7 28.1
2014-Sep-02 12:00N 13°46' W 121°23'0 0.3 28.1
2014-Sep-02 11:00N 13°46' W 121°22'4 1.9 28.1
2014-Sep-02 09:00N 13°49' W 121°21'0 0.0 28.1
2014-Sep-02 06:00N 13°49' W 121°21'1 0.3 28.2
2014-Sep-02 04:00N 13°50' W 121°21'1 0.6 28.2
2014-Sep-02 02:00N 13°50' W 121°22'1 1.2 28.3
2014-Sep-02 01:00N 13°51' W 121°23'0 0.0 28.5
2014-Sep-02 00:00N 13°51' W 121°23'0 0.2 28.5
2014-Sep-01 23:00N 13°51' W 121°24'1 0.4 28.6
2014-Sep-01 21:00N 13°51' W 121°24'1 0.2 28.5
2014-Sep-01 18:00N 13°51' W 121°25'0 0.2 28.1
2014-Sep-01 16:00N 13°52' W 121°25'0 0.1 28.0
2014-Sep-01 12:00N 13°52' W 121°25'0 0.2 28.0
2014-Sep-01 11:00N 13°52' W 121°25'0 0.2 28.0
2014-Sep-01 09:00N 13°52' W 121°24'0 0.0 28.0
2014-Sep-01 06:00N 13°52' W 121°24'0 0.4 28.0
2014-Sep-01 05:00N 13°52' W 121°24'0 0.4 28.0
2014-Sep-01 04:00N 13°51' W 121°24'1 0.5 28.0
2014-Sep-01 03:00N 13°52' W 121°24'1 0.7 28.0
2014-Sep-01 01:00N 13°53' W 121°22'1 0.5 28.1
2014-Aug-31 23:00N 13°53' W 121°23'1 1.0 28.3
2014-Aug-31 22:00N 13°54' W 121°23'0 0.0 28.2
2014-Aug-31 21:00N 13°54' W 121°23'1 0.4 28.2
2014-Aug-31 18:00N 13°55' W 121°22'1 0.9 28.0
2014-Aug-31 17:00N 13°55' W 121°23'0 0.1 28.0
2014-Aug-31 16:00N 13°55' W 121°23'0 0.2 28.0
2014-Aug-31 14:00N 13°56' W 121°23'0 0.2 27.9
2014-Aug-31 12:00N 13°55' W 121°23'1 0.4 27.9
2014-Aug-31 10:00N 13°55' W 121°23'3 2.6 28.0
2014-Aug-31 09:00N 13°54' W 121°21'1 0.2 28.0
2014-Aug-31 06:00N 13°54' W 121°20'2 0.7 28.2
2014-Aug-31 03:00N 13°54' W 121°18'3 1.4 28.1
2014-Aug-31 01:00N 13°55' W 121°16'0 0.5 28.2
2014-Aug-31 00:00N 13°55' W 121°15'2 1.6 28.2
2014-Aug-30 23:00N 13°56' W 121°14'2 0.5 28.2
2014-Aug-30 18:00N 13°58' W 121°12'3 3.1 28.0
2014-Aug-30 17:00N 13°59' W 121°09'0 0.0 28.0
2014-Aug-30 16:00N 13°59' W 121°09'1 0.7 28.0
2014-Aug-30 14:00N 13°60' W 121°08'0 0.0 28.0
2014-Aug-30 13:00N 13°60' W 121°08'2 2.0 27.9
2014-Aug-30 12:00N 14°01' W 121°06'2 0.8 28.0
2014-Aug-30 10:00N 14°02' W 121°05'0 0.1 28.0
2014-Aug-30 05:00N 14°02' W 121°04'1 1.3 28.1
2014-Aug-30 04:00N 14°02' W 121°03'1 1.3 28.2
2014-Aug-30 03:00N 14°01' W 121°02'2 1.5 28.2
2014-Aug-30 02:00N 14°01' W 121°00'1 0.3 28.3
2014-Aug-30 00:00N 14°01' W 120°60'2 0.7 28.4
2014-Aug-29 21:00N 14°01' W 120°57'4 1.4
2014-Aug-29 18:00N 14°00' W 120°53'0 0.3 28.1
2014-Aug-29 17:00N 14°01' W 120°53'7 1.5 28.0
2014-Aug-29 12:00N 13°60' W 120°45'4 1.8 28.0
2014-Aug-29 10:00N 14°01' W 120°41'4 3.6 28.0
2014-Aug-29 09:00N 13°60' W 120°45'4 1.2 28.0
2014-Aug-29 06:00N 14°01' W 120°41'2 0.5 28.0
2014-Aug-29 03:00N 14°02' W 120°41'0 0.0 28.2
2014-Aug-29 02:00N 14°02' W 120°41'1 0.6 28.5
2014-Aug-29 00:00N 14°03' W 120°42'1 0.3 28.8
2014-Aug-28 21:00N 14°02' W 120°42'0 0.1 28.2
2014-Aug-28 18:00N 14°02' W 120°42'2 1.1 27.8
2014-Aug-28 16:00N 14°00' W 120°42'0 0.0 27.6
2014-Aug-28 14:00N 14°00' W 120°42'1 0.5 27.4
2014-Aug-28 13:00N 13°60' W 120°42'1 0.3 27.5
2014-Aug-28 11:00N 14°00' W 120°41'2 1.8 27.8
2014-Aug-28 10:00N 13°59' W 120°41'2 0.4 27.9
2014-Aug-28 06:00N 13°57' W 120°40'1 0.6 27.9
2014-Aug-28 05:00N 13°57' W 120°40'3 0.6 27.9
2014-Aug-28 00:00N 13°54' W 120°39'1 1.5 27.9
2014-Aug-27 23:00N 13°53' W 120°39'1 0.9 27.9
2014-Aug-27 22:00N 13°52' W 120°39'1 0.9 27.9
2014-Aug-27 21:00N 13°53' W 120°39'1 0.4 27.9
2014-Aug-27 18:00N 13°52' W 120°38'0 0.3 27.9
2014-Aug-27 17:00N 13°52' W 120°39'1 0.2 27.9
2014-Aug-27 14:00N 13°52' W 120°38'0 0.2 27.9
2014-Aug-27 13:00N 13°52' W 120°38'0 0.1 27.9
2014-Aug-27 10:00N 13°52' W 120°38'1 1.0 27.9
2014-Aug-27 09:00N 13°52' W 120°39'0 0.0 27.9
2014-Aug-27 05:00N 13°52' W 120°39'0 0.1 27.9
2014-Aug-27 04:00N 13°52' W 120°39'1 1.2 28.0
2014-Aug-27 03:00N 13°52' W 120°40'1 0.3 28.0
2014-Aug-27 00:00N 13°51' W 120°41'1 0.5 28.1
2014-Aug-26 22:00N 13°51' W 120°42'0 0.3 28.1
2014-Aug-26 21:00N 13°51' W 120°42'3 2.5 28.1
2014-Aug-26 20:00N 13°49' W 120°44'1 1.0 28.0
2014-Aug-26 19:00N 13°49' W 120°43'0 0.0 28.0
2014-Aug-26 18:00N 13°49' W 120°43'2 1.0 28.0
2014-Aug-26 16:00N 13°48' W 120°45'0 0.0 28.0
2014-Aug-26 15:00N 13°48' W 120°45'0 0.3 28.0
2014-Aug-26 14:00N 13°48' W 120°45'0 0.3 28.0
2014-Aug-26 13:00N 13°48' W 120°45'0 0.0 28.0
2014-Aug-26 12:00N 13°48' W 120°45'0 0.2 28.0
2014-Aug-26 11:00N 13°48' W 120°45'0 0.3 28.0
2014-Aug-26 10:00N 13°48' W 120°45'0 0.0 28.0
2014-Aug-26 09:00N 13°48' W 120°45'0 0.0 28.0
2014-Aug-26 08:00N 13°48' W 120°45'2 0.3 28.0
2014-Aug-26 01:00N 13°51' W 120°45'1 0.3 28.1
2014-Aug-25 23:00N 13°51' W 120°46'0 0.4 28.2
2014-Aug-25 22:00N 13°52' W 120°46'1 0.3 28.2
2014-Aug-25 20:00N 13°52' W 120°46'1 0.7 28.1
2014-Aug-25 18:00N 13°54' W 120°45'1 1.4 28.1
2014-Aug-25 17:00N 13°55' W 120°46'0 0.0 28.0
2014-Aug-25 16:00N 13°55' W 120°46'0 0.0 28.0
2014-Aug-25 14:00N 13°55' W 120°46'1 0.6 28.0
2014-Aug-25 13:00N 13°55' W 120°46'1 0.3 28.0
2014-Aug-25 09:00N 13°56' W 120°46'0 0.0 28.0
2014-Aug-25 06:00N 13°56' W 120°46'1 0.6 28.1
2014-Aug-25 04:00N 13°57' W 120°45'2 0.5 28.1
2014-Aug-24 23:00N 13°59' W 120°44'0 0.4 28.2
2014-Aug-24 22:00N 13°59' W 120°43'1 0.6 28.2
2014-Aug-24 20:00N 13°60' W 120°42'2 2.0 28.1
2014-Aug-24 19:00N 14°01' W 120°41'1 0.5 28.1
2014-Aug-24 18:00N 14°01' W 120°41'1 0.8 28.0
2014-Aug-24 17:00N 14°02' W 120°41'3 2.6 28.0
2014-Aug-24 16:00N 14°02' W 120°39'2 0.6 28.0
2014-Aug-24 13:00N 14°03' W 120°37'2 1.5 27.9
2014-Aug-24 12:00N 14°04' W 120°36'1 0.7 28.0
2014-Aug-24 11:00N 14°04' W 120°37'5 1.0 28.0
2014-Aug-24 06:00N 14°07' W 120°33'2 0.9 28.0
2014-Aug-24 04:00N 14°08' W 120°31'3 3.0 28.1
2014-Aug-24 03:00N 14°11' W 120°30'3 0.9 28.1
2014-Aug-24 00:00N 14°13' W 120°28'1 0.9 28.3
2014-Aug-23 23:00N 14°14' W 120°28'1 0.6 28.3
2014-Aug-23 21:00N 14°15' W 120°27'   28.2

Dump ship's entire track history